Date String (YYYY-MM-DD hh:mm:ss) UTC,Instrument flags,Ambient pressure (hPa),Sample flow (lpm),Bypass flow (lpm),Sample temperature (°C),Ambient temperature (°C),ASC tube jacket temperature (°C),LED temperature (°C),Box temperature (°C),Sample RH (%),Span deviation,Mass concentration (μg/m³),Mass concentration (μg/m³),Mass concentration (μg/m³)
DateTimeUTC,F1_M11,P_M11,Q1_M11,Q2_M11,T1_M11,T2_M11,T3_M11,T4_M11,T5_M11,U1_M11,ZSPAN_M11,X0_M11,X2_M11,X1_M11
2021-12-13 05:00:00,,0822.7,4.99,0.00,24.7,24.0,00.0,33.8,26.4,05.4,0000.0,0001.96,0000.68,0000.48
2021-12-13 05:01:00,,0822.7,5.01,0.00,24.6,24.0,00.0,33.7,26.4,05.4,0000.0,0002.01,0000.69,0000.49
2021-12-13 05:02:00,,0822.7,5.00,0.00,24.6,24.0,00.0,33.7,26.4,05.4,0000.0,0001.99,0000.71,0000.50
2021-12-13 05:03:00,,0822.7,5.01,0.00,24.6,24.0,00.0,33.7,26.3,05.4,0000.0,0002.04,0000.73,0000.51
2021-12-13 05:04:00,,0822.8,4.99,0.00,24.6,24.0,00.0,33.7,26.3,05.4,0000.0,0002.58,0000.73,0000.52
2021-12-13 05:05:00,,0822.8,5.00,0.00,24.6,23.9,00.0,33.7,26.3,05.4,0000.0,0003.59,0000.73,0000.54
2021-12-13 05:06:00,,0822.8,5.00,0.00,24.6,23.9,00.0,33.7,26.3,05.4,0000.0,0003.55,0000.73,0000.55
2021-12-13 05:07:00,,0822.8,5.00,0.00,24.6,23.9,00.0,33.7,26.3,05.4,0000.0,0003.49,0000.75,0000.56
2021-12-13 05:08:00,,0822.7,4.98,0.00,24.6,23.9,00.0,33.7,26.2,05.4,0000.0,0003.30,0000.73,0000.56
2021-12-13 05:09:00,,0822.8,5.00,0.00,24.5,23.9,00.0,33.7,26.2,05.4,0000.0,0003.31,0000.74,0000.56
2021-12-13 05:10:00,,0822.8,5.01,0.00,24.5,23.9,00.0,33.6,26.2,05.4,0000.0,0003.40,0000.75,0000.56
2021-12-13 05:11:00,,0822.8,5.00,0.00,24.5,23.8,00.0,33.6,26.1,05.4,0000.0,0004.18,0000.80,0000.56
2021-12-13 05:12:00,,0822.8,4.99,0.00,24.5,23.8,00.0,33.6,26.2,05.4,0000.0,0004.34,0000.83,0000.56
2021-12-13 05:13:00,,0822.8,5.01,0.00,24.5,23.9,00.0,33.6,26.2,05.4,0000.0,0005.52,0000.82,0000.55
2021-12-13 05:14:00,,0822.8,4.98,0.00,24.5,23.9,00.0,33.6,26.2,05.4,0000.0,0005.58,0000.80,0000.54
2021-12-13 05:15:00,,0822.8,5.01,0.00,24.5,23.9,00.0,33.6,26.3,05.4,0000.0,0005.04,0000.81,0000.53
2021-12-13 05:16:00,,0822.8,4.99,0.00,24.6,24.0,00.0,33.6,26.3,05.4,0000.0,0004.06,0000.81,0000.52
2021-12-13 05:17:00,,0822.9,5.02,0.00,24.6,24.0,00.0,33.6,26.3,05.4,0000.0,0003.90,0000.79,0000.51
2021-12-13 05:18:00,,0822.9,4.99,0.00,24.6,24.0,00.0,33.6,26.3,05.4,0000.0,0003.90,0000.79,0000.51
2021-12-13 05:19:00,,0822.9,5.02,0.00,24.6,24.0,00.0,33.6,26.3,05.4,0000.0,0003.90,0000.79,0000.51
2021-12-13 05:20:00,,0822.9,5.00,0.00,24.6,24.0,00.0,33.6,26.3,05.4,0000.0,0003.94,0000.78,0000.51
2021-12-13 05:21:00,,0823.0,5.00,0.00,24.6,24.0,00.0,33.6,26.3,05.4,0000.0,0004.28,0000.78,0000.51
2021-12-13 05:22:00,,0823.0,4.98,0.00,24.6,24.0,00.0,33.6,26.3,05.4,0000.0,0004.29,0000.77,0000.51
2021-12-13 05:23:00,,0823.0,5.00,0.00,24.6,24.0,00.0,33.6,26.3,05.4,0000.0,0004.03,0000.71,0000.50
2021-12-13 05:24:00,,0823.0,4.99,0.00,24.6,24.0,00.0,33.6,26.3,05.4,0000.0,0002.88,0000.73,0000.51
2021-12-13 05:25:00,,0822.9,5.00,0.00,24.6,24.0,00.0,33.6,26.4,05.3,0000.0,0002.84,0000.77,0000.52
2021-12-13 05:26:00,,0823.0,4.99,0.00,24.7,24.0,00.0,33.6,26.4,05.3,0000.0,0002.95,0000.80,0000.53
2021-12-13 05:27:00,,0823.0,5.01,0.00,24.7,24.0,00.0,33.6,26.4,05.4,0000.0,0003.10,0000.84,0000.54
2021-12-13 05:28:00,,0823.1,5.00,0.00,24.7,24.0,00.0,33.6,26.4,05.4,0000.0,0003.09,0000.84,0000.54
2021-12-13 05:29:00,,0823.1,5.00,0.00,24.7,24.0,00.0,33.7,26.4,05.4,0000.0,0003.13,0000.86,0000.55
2021-12-13 05:30:00,,0823.1,4.99,0.00,24.7,24.0,00.0,33.7,26.5,05.3,0000.0,0003.28,0000.88,0000.55
2021-12-13 05:31:00,,0823.1,5.01,0.00,24.7,24.1,00.0,33.7,26.5,05.4,0000.0,0003.28,0000.89,0000.55
2021-12-13 05:32:00,,0823.1,5.00,0.00,24.8,24.1,00.0,33.7,26.5,05.4,0000.0,0003.05,0000.90,0000.56
2021-12-13 05:33:00,,0823.1,4.99,0.00,24.8,24.1,00.0,33.7,26.5,05.3,0000.0,0001.79,0000.86,0000.57
2021-12-13 05:34:00,,0823.1,4.99,0.00,24.8,24.1,00.0,33.7,26.5,05.3,0000.0,0001.82,0000.88,0000.58
2021-12-13 05:35:00,,0823.2,5.01,0.00,24.8,24.1,00.0,33.7,26.5,05.3,0000.0,0001.78,0000.86,0000.57
2021-12-13 05:36:00,,0823.2,5.00,0.00,24.8,24.1,00.0,33.7,26.6,05.4,0000.0,0001.62,0000.82,0000.56
2021-12-13 05:37:00,,0823.2,5.01,0.00,24.8,24.1,00.0,33.7,26.6,05.3,0000.0,0001.47,0000.78,0000.55
2021-12-13 05:38:00,,0823.4,4.99,0.00,24.8,24.2,00.0,33.8,26.6,05.3,0000.0,0001.32,0000.75,0000.54
2021-12-13 05:39:00,,0823.3,5.02,0.00,24.8,24.1,00.0,33.8,26.6,05.3,0000.0,0001.50,0000.73,0000.54
2021-12-13 05:40:00,,0823.4,5.00,0.00,24.8,24.1,00.0,33.8,26.6,05.3,0000.0,0001.58,0000.72,0000.53
2021-12-13 05:41:00,,0823.4,5.00,0.00,24.8,24.2,00.0,33.8,26.6,05.4,0000.0,0001.60,0000.73,0000.52
2021-12-13 05:42:00,,0823.4,5.01,0.00,24.8,24.2,00.0,33.8,26.6,05.3,0000.0,0001.65,0000.76,0000.52
2021-12-13 05:43:00,,0823.4,4.99,0.00,24.8,24.2,00.0,33.8,26.6,05.3,0000.0,0001.80,0000.74,0000.52
2021-12-13 05:44:00,,0823.4,5.00,0.00,24.9,24.2,00.0,33.8,26.7,05.3,0000.0,0001.82,0000.73,0000.52
2021-12-13 05:45:00,,0823.3,4.99,0.00,24.9,24.2,00.0,33.8,26.7,05.3,0000.0,0001.82,0000.72,0000.51
2021-12-13 05:46:00,,0823.3,5.00,0.00,24.9,24.3,00.0,33.8,26.7,05.3,0000.0,0001.86,0000.74,0000.51
2021-12-13 05:47:00,,0823.4,5.00,0.00,24.9,24.3,00.0,33.8,26.7,05.3,0000.0,0003.05,0000.73,0000.51
2021-12-13 05:48:00,,0823.3,4.99,0.00,24.9,24.3,00.0,33.8,26.8,05.3,0000.0,0003.76,0000.73,0000.51
2021-12-13 05:49:00,,0823.3,4.99,0.00,25.0,24.3,00.0,33.8,26.8,05.3,0000.0,0003.78,0000.73,0000.51
2021-12-13 05:50:00,,0823.4,5.01,0.00,25.0,24.3,00.0,33.9,26.8,05.3,0000.0,0003.67,0000.76,0000.52
2021-12-13 05:51:00,,0823.4,4.99,0.00,25.0,24.3,00.0,33.9,26.8,05.3,0000.0,0003.60,0000.81,0000.53
2021-12-13 05:52:00,,0823.4,5.01,0.00,25.0,24.4,00.0,33.9,26.8,05.3,0000.0,0003.59,0000.82,0000.54
2021-12-13 05:53:00,,0823.4,4.99,0.00,25.0,24.4,00.0,33.9,26.8,05.3,0000.0,0003.70,0000.84,0000.54
2021-12-13 05:54:00,,0823.4,5.00,0.00,25.0,24.4,00.0,33.9,26.8,05.3,0000.0,0003.91,0000.86,0000.53
2021-12-13 05:55:00,,0823.4,5.01,0.00,25.0,24.4,00.0,33.9,26.8,05.2,0000.0,0004.01,0000.90,0000.53
2021-12-13 05:56:00,,0823.5,5.00,0.00,25.1,24.4,00.0,33.9,26.9,05.2,0000.0,0003.98,0000.89,0000.52
2021-12-13 05:57:00,,0823.6,5.00,0.00,25.1,24.4,00.0,33.9,26.9,05.2,0000.0,0004.01,0000.90,0000.53
2021-12-13 05:58:00,,0823.6,5.01,0.00,25.1,24.4,00.0,34.0,26.9,05.2,0000.0,0003.73,0000.91,0000.53
2021-12-13 05:59:00,,0823.6,5.00,0.00,25.1,24.4,00.0,34.0,26.9,05.2,0000.0,0002.66,0000.91,0000.52
